ARG1933 SAZM-SAVV

Flight info

Callsign ARG1933
Flight time 0h 58m
Altitude 24000
Route ROGAS1G ROGAS W33 SILUS DCT BODAG
Aircraft B738/M-MSDFGHILRVW/LB1

Departure

Time 2026-04-26 05:49
Airport Ástor Piazzola International Airport (SAZM)

Arrival

Time 2026-04-26 06:48
Airport Gobernador Castello Airport (SAVV)
Time Latitude Longitude Altitude Speed Heading
2026-04-26 05:29 -37.93326 -57.58077 47 ft 0 kts 303°
2026-04-26 05:41 -37.93327 -57.58074 47 ft 3 kts 303°
2026-04-26 05:41 -37.93340 -57.58045 47 ft 4 kts 279°
2026-04-26 05:41 -37.93339 -57.58026 42 ft 3 kts 189°
2026-04-26 05:42 -37.93328 -57.58024 44 ft 4 kts 183°
2026-04-26 05:42 -37.93302 -57.58024 47 ft 2 kts 175°
2026-04-26 05:42 -37.93300 -57.58024 47 ft 0 kts 175°
2026-04-26 05:44 -37.93303 -57.58024 47 ft 2 kts 175°
2026-04-26 05:44 -37.93335 -57.58025 43 ft 8 kts 183°
2026-04-26 05:45 -37.93377 -57.57983 46 ft 9 kts 119°
2026-04-26 05:45 -37.93405 -57.57919 45 ft 8 kts 119°
2026-04-26 05:45 -37.93433 -57.57856 45 ft 8 kts 119°
2026-04-26 05:45 -37.93460 -57.57794 47 ft 9 kts 119°
2026-04-26 05:46 -37.93498 -57.57708 47 ft 13 kts 119°
2026-04-26 05:46 -37.93550 -57.57590 46 ft 17 kts 119°
2026-04-26 05:46 -37.93615 -57.57444 47 ft 20 kts 119°
2026-04-26 05:46 -37.93681 -57.57294 46 ft 19 kts 119°
2026-04-26 05:47 -37.93746 -57.57148 45 ft 19 kts 119°
2026-04-26 05:47 -37.93808 -57.57007 46 ft 18 kts 120°
2026-04-26 05:47 -37.93869 -57.56871 47 ft 17 kts 119°
2026-04-26 05:47 -37.93927 -57.56739 47 ft 17 kts 119°
2026-04-26 05:48 -37.93983 -57.56612 47 ft 16 kts 119°
2026-04-26 05:48 -37.94032 -57.56487 47 ft 16 kts 101°
2026-04-26 05:48 -37.93995 -57.56364 45 ft 13 kts 60°
2026-04-26 05:48 -37.93943 -57.56304 43 ft 7 kts 351°
2026-04-26 05:49 -37.93893 -57.56389 42 ft 26 kts 303°
2026-04-26 05:49 -37.93171 -57.57830 72 ft 155 kts 303°
2026-04-26 05:49 -37.92601 -57.58994 764 ft 157 kts 302°
2026-04-26 05:50 -37.92042 -57.60146 1646 ft 154 kts 303°
2026-04-26 05:50 -37.91461 -57.61353 2323 ft 169 kts 302°
2026-04-26 05:50 -37.90826 -57.62661 2901 ft 180 kts 301°
2026-04-26 05:50 -37.90140 -57.64066 3368 ft 196 kts 301°
2026-04-26 05:51 -37.89478 -57.65688 3699 ft 221 kts 284°
2026-04-26 05:51 -37.89609 -57.67669 4407 ft 240 kts 255°
2026-04-26 05:51 -37.90569 -57.69511 5065 ft 260 kts 231°
2026-04-26 05:51 -37.91909 -57.71087 6010 ft 262 kts 229°
2026-04-26 05:52 -37.93221 -57.72639 7062 ft 255 kts 230°
2026-04-26 05:52 -37.94498 -57.74191 7894 ft 260 kts 230°
2026-04-26 05:52 -37.95833 -57.75797 8601 ft 268 kts 229°
2026-04-26 05:52 -37.97171 -57.77400 9409 ft 272 kts 229°
2026-04-26 05:53 -37.98546 -57.79053 10203 ft 276 kts 229°
2026-04-26 05:53 -37.99973 -57.80784 10433 ft 301 kts 229°
2026-04-26 05:53 -38.01542 -57.82695 10703 ft 322 kts 229°
2026-04-26 05:53 -38.03179 -57.84683 11324 ft 330 kts 229°
2026-04-26 05:54 -38.04849 -57.86710 12127 ft 333 kts 229°
2026-04-26 05:54 -38.06527 -57.88745 12961 ft 335 kts 229°
2026-04-26 05:54 -38.08222 -57.90805 13770 ft 340 kts 229°
2026-04-26 05:54 -38.09935 -57.92893 14552 ft 343 kts 229°
2026-04-26 05:55 -38.11661 -57.95000 15345 ft 345 kts 229°
2026-04-26 05:55 -38.13398 -57.97127 16130 ft 349 kts 229°
2026-04-26 05:55 -38.15155 -57.99280 16889 ft 353 kts 229°
2026-04-26 05:55 -38.16929 -58.01455 17673 ft 357 kts 229°
2026-04-26 05:56 -38.18727 -58.03662 18347 ft 362 kts 229°
2026-04-26 05:56 -38.20544 -58.05893 18983 ft 365 kts 229°
2026-04-26 05:56 -38.22374 -58.08154 19645 ft 368 kts 231°
2026-04-26 05:56 -38.24043 -58.10609 20272 ft 367 kts 238°
2026-04-26 05:57 -38.24891 -58.12043 20619 ft 368 kts 239°
2026-04-26 05:57 -38.25518 -58.13129 20876 ft 369 kts 239°
2026-04-26 05:57 -38.27030 -58.15789 21492 ft 373 kts 239°
2026-04-26 05:57 -38.28533 -58.18449 22094 ft 376 kts 239°
2026-04-26 05:58 -38.30070 -58.21163 22719 ft 380 kts 239°
2026-04-26 05:58 -38.31650 -58.23941 23276 ft 385 kts 239°
2026-04-26 05:58 -38.33211 -58.26673 23763 ft 388 kts 239°
2026-04-26 05:58 -38.34830 -58.29496 24279 ft 390 kts 239°
2026-04-26 05:59 -38.36418 -58.32261 24777 ft 393 kts 239°
2026-04-26 05:59 -38.38036 -58.35078 25244 ft 395 kts 239°
2026-04-26 05:59 -38.39667 -58.37918 25704 ft 398 kts 239°
2026-04-26 05:59 -38.41307 -58.40776 26154 ft 401 kts 239°
2026-04-26 06:00 -38.42959 -58.43656 26603 ft 403 kts 239°
2026-04-26 06:00 -38.44620 -58.46554 27051 ft 406 kts 239°
2026-04-26 06:00 -38.46287 -58.49464 27496 ft 408 kts 239°
2026-04-26 06:00 -38.47971 -58.52409 27876 ft 412 kts 239°
2026-04-26 06:01 -38.49661 -58.55366 28281 ft 414 kts 239°
2026-04-26 06:01 -38.51365 -58.58351 28693 ft 416 kts 239°
2026-04-26 06:01 -38.53077 -58.61351 29088 ft 419 kts 239°
2026-04-26 06:01 -38.54794 -58.64364 29462 ft 421 kts 239°
2026-04-26 06:02 -38.56519 -58.67391 29906 ft 421 kts 239°
2026-04-26 06:02 -38.58240 -58.70413 30360 ft 420 kts 239°
2026-04-26 06:02 -38.59957 -58.73433 30758 ft 419 kts 239°
2026-04-26 06:02 -38.61668 -58.76443 31203 ft 418 kts 239°
2026-04-26 06:03 -38.63369 -58.79439 31705 ft 415 kts 239°
2026-04-26 06:03 -38.65057 -58.82414 32196 ft 412 kts 240°
2026-04-26 06:03 -38.66713 -58.85338 32634 ft 410 kts 240°
2026-04-26 06:03 -38.68382 -58.88289 33063 ft 409 kts 240°
2026-04-26 06:04 -38.70045 -58.91231 33505 ft 407 kts 240°
2026-04-26 06:04 -38.71699 -58.94159 33922 ft 405 kts 240°
2026-04-26 06:04 -38.73347 -58.97082 34248 ft 404 kts 240°
2026-04-26 06:04 -38.74993 -59.00003 34526 ft 405 kts 240°
2026-04-26 06:05 -38.76641 -59.02931 34811 ft 405 kts 240°
2026-04-26 06:05 -38.78287 -59.05859 35082 ft 405 kts 240°
2026-04-26 06:05 -38.79935 -59.08792 35344 ft 406 kts 240°
2026-04-26 06:05 -38.81583 -59.11726 35648 ft 405 kts 240°
2026-04-26 06:06 -38.83230 -59.14662 35760 ft 408 kts 240°
2026-04-26 06:06 -38.86562 -59.20613 35761 ft 410 kts 240°
2026-04-26 06:07 -38.89862 -59.26504 35756 ft 403 kts 240°
2026-04-26 06:07 -38.93126 -59.32348 35784 ft 403 kts 240°
2026-04-26 06:08 -38.96390 -59.38208 35773 ft 404 kts 240°
2026-04-26 06:08 -38.99643 -59.44059 35767 ft 405 kts 240°
2026-04-26 06:09 -39.02920 -59.49962 35760 ft 406 kts 240°
2026-04-26 06:09 -39.06201 -59.55882 35758 ft 407 kts 240°
2026-04-26 06:10 -39.09486 -59.61819 35772 ft 408 kts 240°
2026-04-26 06:10 -39.12778 -59.67781 35762 ft 409 kts 240°
2026-04-26 06:11 -39.16075 -59.73761 35753 ft 410 kts 240°
2026-04-26 06:11 -39.19376 -59.79762 35750 ft 410 kts 240°
2026-04-26 06:12 -39.22676 -59.85770 35742 ft 410 kts 240°
2026-04-26 06:12 -39.25973 -59.91787 35749 ft 411 kts 240°
2026-04-26 06:13 -39.29268 -59.97809 35745 ft 411 kts 240°
2026-04-26 06:13 -39.32559 -60.03836 35739 ft 410 kts 240°
2026-04-26 06:14 -39.35840 -60.09857 35743 ft 410 kts 240°
2026-04-26 06:14 -39.39124 -60.15892 35765 ft 410 kts 240°
2026-04-26 06:15 -39.42405 -60.21937 35746 ft 411 kts 239°
2026-04-26 06:15 -39.45665 -60.27954 35736 ft 411 kts 240°
2026-04-26 06:16 -39.48944 -60.34015 35734 ft 412 kts 240°
2026-04-26 06:16 -39.52230 -60.40102 35735 ft 412 kts 240°
2026-04-26 06:17 -39.55514 -60.46197 35742 ft 412 kts 240°
2026-04-26 06:17 -39.58796 -60.52299 35733 ft 412 kts 239°
2026-04-26 06:18 -39.62075 -60.58407 35730 ft 413 kts 239°
2026-04-26 06:18 -39.65353 -60.64527 35731 ft 413 kts 239°
2026-04-26 06:19 -39.68632 -60.70658 35665 ft 414 kts 240°
2026-04-26 06:19 -39.70279 -60.73746 35145 ft 418 kts 240°
2026-04-26 06:19 -39.71934 -60.76849 34587 ft 416 kts 239°
2026-04-26 06:19 -39.73573 -60.79920 34179 ft 411 kts 239°
2026-04-26 06:20 -39.75175 -60.82927 33718 ft 409 kts 240°
2026-04-26 06:20 -39.76781 -60.85945 33195 ft 405 kts 240°
2026-04-26 06:20 -39.78381 -60.88953 32711 ft 401 kts 240°
2026-04-26 06:20 -39.79956 -60.91919 32280 ft 397 kts 240°
2026-04-26 06:21 -39.81523 -60.94874 31828 ft 394 kts 240°
2026-04-26 06:21 -39.83069 -60.97792 31387 ft 391 kts 240°
2026-04-26 06:21 -39.84611 -61.00705 30957 ft 388 kts 240°
2026-04-26 06:21 -39.86136 -61.03589 30532 ft 386 kts 240°
2026-04-26 06:22 -39.87651 -61.06458 30121 ft 384 kts 240°
2026-04-26 06:22 -39.89160 -61.09318 29638 ft 382 kts 240°
2026-04-26 06:22 -39.90660 -61.12161 29156 ft 379 kts 240°
2026-04-26 06:22 -39.92147 -61.14984 28691 ft 376 kts 240°
2026-04-26 06:23 -39.93616 -61.17773 28265 ft 372 kts 240°
2026-04-26 06:23 -39.95075 -61.20546 27825 ft 369 kts 240°
2026-04-26 06:23 -39.96514 -61.23284 27406 ft 365 kts 240°
2026-04-26 06:23 -39.97945 -61.26009 26973 ft 362 kts 240°
2026-04-26 06:24 -39.99359 -61.28705 26557 ft 359 kts 240°
2026-04-26 06:24 -40.00765 -61.31389 26136 ft 357 kts 240°
2026-04-26 06:24 -40.02160 -61.34053 25759 ft 354 kts 240°
2026-04-26 06:24 -40.03546 -61.36703 25347 ft 352 kts 240°
2026-04-26 06:25 -40.04919 -61.39330 24931 ft 350 kts 240°
2026-04-26 06:25 -40.06288 -61.41949 24530 ft 348 kts 239°
2026-04-26 06:25 -40.07644 -61.44548 24126 ft 346 kts 239°
2026-04-26 06:25 -40.08996 -61.47139 23726 ft 344 kts 240°
2026-04-26 06:26 -40.10345 -61.49727 23300 ft 343 kts 240°
2026-04-26 06:26 -40.11684 -61.52298 22856 ft 341 kts 240°
2026-04-26 06:26 -40.13013 -61.54851 22427 ft 339 kts 239°
2026-04-26 06:26 -40.14328 -61.57379 22059 ft 334 kts 239°
2026-04-26 06:27 -40.15631 -61.59888 21651 ft 332 kts 239°
2026-04-26 06:27 -40.16905 -61.62343 21275 ft 329 kts 240°
2026-04-26 06:27 -40.18199 -61.64839 20886 ft 326 kts 240°
2026-04-26 06:27 -40.19467 -61.67285 20513 ft 323 kts 240°
2026-04-26 06:28 -40.20703 -61.69674 20153 ft 320 kts 240°
2026-04-26 06:28 -40.21963 -61.72110 19771 ft 318 kts 240°
2026-04-26 06:28 -40.23200 -61.74503 19405 ft 316 kts 240°
2026-04-26 06:28 -40.24411 -61.76849 19044 ft 314 kts 240°
2026-04-26 06:29 -40.25631 -61.79214 18668 ft 313 kts 240°
2026-04-26 06:29 -40.26452 -61.80805 18422 ft 311 kts 240°
2026-04-26 06:29 -40.28048 -61.83902 17931 ft 309 kts 240°
2026-04-26 06:29 -40.29247 -61.86231 17508 ft 307 kts 240°
2026-04-26 06:30 -40.30437 -61.88543 17137 ft 305 kts 240°
2026-04-26 06:30 -40.31237 -61.90099 16895 ft 303 kts 240°
2026-04-26 06:30 -40.32409 -61.92379 16535 ft 301 kts 240°
2026-04-26 06:30 -40.33553 -61.94608 16177 ft 298 kts 240°
2026-04-26 06:31 -40.34704 -61.96851 15816 ft 296 kts 240°
2026-04-26 06:31 -40.35846 -61.99078 15459 ft 294 kts 240°
2026-04-26 06:31 -40.36986 -62.01302 15099 ft 292 kts 240°
2026-04-26 06:31 -40.38116 -62.03510 14744 ft 291 kts 240°
2026-04-26 06:32 -40.39223 -62.05673 14397 ft 289 kts 240°
2026-04-26 06:32 -40.40336 -62.07850 14053 ft 288 kts 240°
2026-04-26 06:32 -40.41450 -62.10031 13704 ft 287 kts 240°
2026-04-26 06:32 -40.42559 -62.12204 13332 ft 286 kts 240°
2026-04-26 06:33 -40.43663 -62.14368 12954 ft 284 kts 240°
2026-04-26 06:33 -40.44758 -62.16516 12591 ft 283 kts 240°
2026-04-26 06:33 -40.45850 -62.18658 12248 ft 281 kts 240°
2026-04-26 06:33 -40.46548 -62.20030 12011 ft 279 kts 240°
2026-04-26 06:34 -40.47615 -62.22126 11673 ft 277 kts 239°
2026-04-26 06:34 -40.48682 -62.24224 11340 ft 275 kts 239°
2026-04-26 06:34 -40.49735 -62.26296 11003 ft 273 kts 239°
2026-04-26 06:34 -40.50788 -62.28369 10671 ft 271 kts 239°
2026-04-26 06:35 -40.51827 -62.30416 10335 ft 268 kts 238°
2026-04-26 06:35 -40.53188 -62.33098 10020 ft 262 kts 238°
2026-04-26 06:35 -40.53860 -62.34424 9937 ft 255 kts 238°
2026-04-26 06:35 -40.54831 -62.36340 9811 ft 247 kts 238°
2026-04-26 06:36 -40.55755 -62.38162 9695 ft 239 kts 238°
2026-04-26 06:36 -40.56673 -62.39977 9415 ft 237 kts 238°
2026-04-26 06:36 -40.57580 -62.41772 9135 ft 235 kts 238°
2026-04-26 06:36 -40.58482 -62.43557 8880 ft 233 kts 238°
2026-04-26 06:37 -40.59437 -62.45263 8609 ft 232 kts 226°
2026-04-26 06:37 -40.60691 -62.46577 8416 ft 230 kts 220°
2026-04-26 06:37 -40.61990 -62.47846 8148 ft 236 kts 220°
2026-04-26 06:37 -40.63323 -62.49154 7879 ft 243 kts 219°
2026-04-26 06:38 -40.64688 -62.50498 7597 ft 245 kts 219°
2026-04-26 06:38 -40.66049 -62.51842 7307 ft 244 kts 219°
2026-04-26 06:38 -40.67391 -62.53169 7044 ft 242 kts 220°
2026-04-26 06:38 -40.68732 -62.54501 6769 ft 240 kts 220°
2026-04-26 06:39 -40.70060 -62.55822 6496 ft 239 kts 220°
2026-04-26 06:39 -40.71383 -62.57141 6230 ft 237 kts 220°
2026-04-26 06:39 -40.72697 -62.58451 5955 ft 236 kts 220°
2026-04-26 06:39 -40.74002 -62.59755 5676 ft 235 kts 220°
2026-04-26 06:40 -40.75296 -62.61048 5434 ft 232 kts 220°
2026-04-26 06:40 -40.76575 -62.62327 5167 ft 230 kts 219°
2026-04-26 06:40 -40.77841 -62.63594 4919 ft 228 kts 219°
2026-04-26 06:40 -40.79100 -62.64855 4667 ft 226 kts 219°
2026-04-26 06:41 -40.80328 -62.66084 4574 ft 218 kts 220°
2026-04-26 06:41 -40.81518 -62.67276 4458 ft 210 kts 220°
2026-04-26 06:41 -40.82656 -62.68416 4370 ft 202 kts 220°
2026-04-26 06:41 -40.83763 -62.69521 4211 ft 198 kts 219°
2026-04-26 06:42 -40.84875 -62.70571 4022 ft 194 kts 218°
2026-04-26 06:42 -40.85962 -62.71584 3902 ft 187 kts 218°
2026-04-26 06:42 -40.87014 -62.72566 3882 ft 184 kts 218°
2026-04-26 06:42 -40.88089 -62.73574 3809 ft 196 kts 218°
2026-04-26 06:43 -40.89219 -62.74634 3559 ft 199 kts 218°
2026-04-26 06:43 -40.90338 -62.75687 3339 ft 194 kts 220°
2026-04-26 06:43 -40.91106 -62.77042 3090 ft 185 kts 250°
2026-04-26 06:43 -40.91318 -62.78696 2886 ft 179 kts 268°
2026-04-26 06:44 -40.91059 -62.80260 2679 ft 174 kts 279°
2026-04-26 06:44 -40.90744 -62.81790 2481 ft 164 kts 278°
2026-04-26 06:44 -40.90457 -62.83175 2281 ft 149 kts 277°
2026-04-26 06:44 -40.90192 -62.84443 2123 ft 137 kts 276°
2026-04-26 06:45 -40.89945 -62.85622 1933 ft 130 kts 276°
2026-04-26 06:45 -40.89712 -62.86737 1763 ft 125 kts 275°
2026-04-26 06:45 -40.89484 -62.87847 1609 ft 126 kts 275°
2026-04-26 06:45 -40.89255 -62.88948 1550 ft 126 kts 275°
2026-04-26 06:46 -40.89020 -62.90082 1326 ft 127 kts 276°
2026-04-26 06:46 -40.88783 -62.91218 1133 ft 129 kts 276°
2026-04-26 06:46 -40.88545 -62.92366 936 ft 132 kts 279°
2026-04-26 06:46 -40.88298 -62.93542 756 ft 133 kts 282°
2026-04-26 06:47 -40.88042 -62.94722 592 ft 133 kts 282°
2026-04-26 06:47 -40.87796 -62.95884 419 ft 131 kts 281°
2026-04-26 06:47 -40.87569 -62.97057 253 ft 132 kts 282°
2026-04-26 06:47 -40.87318 -62.98234 49 ft 134 kts 284°
2026-04-26 06:48 -40.87078 -62.99341 26 ft 106 kts 284°
2026-04-26 06:48 -40.86938 -63.00010 21 ft 46 kts 285°
2026-04-26 06:48 -40.86883 -63.00270 21 ft 25 kts 285°
2026-04-26 06:48 -40.86836 -63.00487 23 ft 24 kts 285°
2026-04-26 06:49 -40.86802 -63.00650 24 ft 15 kts 286°
2026-04-26 06:49 -40.86773 -63.00782 28 ft 15 kts 292°
2026-04-26 06:49 -40.86701 -63.00854 26 ft 5 kts 333°
2026-04-26 06:49 -40.86665 -63.00869 24 ft 6 kts 356°
2026-04-26 06:50 -40.86628 -63.00850 23 ft 6 kts 38°
2026-04-26 06:50 -40.86599 -63.00813 23 ft 6 kts 45°
2026-04-26 06:50 -40.86572 -63.00777 27 ft 6 kts 46°
2026-04-26 06:50 -40.86545 -63.00741 24 ft 5 kts 46°
2026-04-26 06:51 -40.86519 -63.00705 25 ft 5 kts 45°
2026-04-26 06:51 -40.86468 -63.00638 27 ft 5 kts 45°
2026-04-26 06:51 -40.86441 -63.00603 25 ft 6 kts 45°
2026-04-26 06:52 -40.86407 -63.00549 24 ft 8 kts 67°
2026-04-26 06:52 -40.86378 -63.00495 24 ft 6 kts 24°
2026-04-26 06:52 -40.86349 -63.00494 23 ft 2 kts 354°
2026-04-26 06:52 -40.86336 -63.00496 26 ft 2 kts 354°
2026-04-26 06:53 -40.86329 -63.00497 24 ft 0 kts 354°